Starlink 11537

operational
NORAD ID: 62911 Int'l Des: 2025-027 Owner: SPXS Country: US Constellation: starlink
LEOCIRCULAR

Starlink 11537について

説明を読み込み中...

リアルタイム位置

3D地球を読み込み中...

次回通過

高度履歴

Altitude vs Time

uPlot chart will show altitude changes over time

軌道要素

1 62911U 25027E 25257.44942856 .00122191 00000-0 94055-3 0 9990
2 62911 43.0031 330.0255 0001410 231.1403 128.9339 15.70872304 35471
Epoch: Sep 14, 2025 • Age: 20 hours

現在のステータス

高度 358.6 km
速度 7.70 km/s
衛星直下点 39.06°N, 16.01°W
打ち上げ日 Feb 8, 2025
運用期間 0.5 years
タイプ internet

技術仕様

分類 Payload
質量 960.00 kg
乾燥質量 910.00 kg
総質量 960.00 kg
長さ 0.30 m
直径 4.10 m
スパン 29.00 m
形状 Box + pan
製造者 SPXS
バスタイプ Starlink V2MD
フェーズステータス In Orbit
所有者/国 SPXS/US

大規模コンステレーション

Loading constellations...